New Roads False River Regiona, LA

8:45 PM CST on November 14, 2019 (GMT -0600)
False River

Weather History for KHZR - June, 2019

Change the Weather History Date:

Friday, June 14, 2019

  Actual Average (WUND) Record (WUND)
Temperature  
Mean Temperature 76 °F -  
Max Temperature 87 °F - - (-1)
Min Temperature 64 °F - - (-1)
Cooling Degree Days 10    
Growing Degree Days 26 (Base 50)    
Moisture  
Dew Point 62 °F    
Average Humidity 61    
Maximum Humidity 77    
Minimum Humidity 43    
Precipitation  
Precipitation 0.00 in - - ()
Sea Level Pressure  
Sea Level Pressure 30.07 in    
Wind  
Wind Speed 4 mph ()    
Max Wind Speed 9 mph    
Max Gust Speed -    
Visibility 9.9 miles    
Events      
Averages and records for this station are not official NWS values.
T = Trace of Precipitation, MM = Missing Value Source: Averaged Metar Reports

Daily Weather History Graph

Daily Weather History Graph

Search for Another Location

Airport or City:

Astronomy

Jun. 14, 2019 Rise Set
Actual Time 6:02 AM CDT 8:09 PM CDT
Civil Twilight 5:34 AM CDT 8:37 PM CDT
Nautical Twilight 5:01 AM CDT 9:11 PM CDT
Astronomical Twilight 4:24 AM CDT 9:47 PM CDT
Moon 5:42 PM CDT (6/14) 4:07 AM CDT (6/14)
Length of Visible Light 15h 02m
Length of Day
14h 07m
Waxing Gibbous, 92% of the Moon is Illuminated
Jun 14
Waxing Gibbous
Jun 17
Full
Jun 25
Last Quarter
Jul 2
New
Jul 9
First Quarter

Hourly Weather History & Observations

Time (CDT) Temp. Heat Index Dew Point Humidity Pressure Visibility Wind Dir Wind Speed Gust Speed Precip Events Conditions
12:14 AM 69.8 °F - 57.2 °F 64% 30.09 in 10.0 mi ENE 5.8 mph - N/A   Clear
12:34 AM 69.8 °F - 57.2 °F 64% 30.08 in 10.0 mi ENE 5.8 mph - N/A   Clear
12:54 AM 69.8 °F - 55.4 °F 60% 30.08 in 10.0 mi ENE 4.6 mph - N/A   Clear
1:14 AM 68.0 °F - 57.2 °F 68% 30.08 in 10.0 mi East 3.5 mph - N/A   Clear
1:34 AM 66.2 °F - 57.2 °F 73% 30.08 in 10.0 mi Calm Calm - N/A   Clear
1:54 AM 66.2 °F - 57.2 °F 73% 30.08 in 10.0 mi Calm Calm - N/A   Clear
2:14 AM 68.0 °F - 57.2 °F 68% 30.08 in 10.0 mi Calm Calm - N/A   Clear
2:34 AM 68.0 °F - 57.2 °F 68% 30.08 in 10.0 mi East 3.5 mph - N/A   Clear
2:54 AM 66.2 °F - 57.2 °F 73% 30.08 in 10.0 mi Calm Calm - N/A   Clear
3:16 AM 66.2 °F - 57.2 °F 73% 30.08 in 10.0 mi Calm Calm - N/A   Clear
3:34 AM 66.2 °F - 57.2 °F 73% 30.08 in 10.0 mi Calm Calm - N/A   Clear
3:54 AM 66.2 °F - 57.2 °F 73% 30.08 in 10.0 mi East 3.5 mph - N/A   Clear
4:14 AM 66.2 °F - 55.4 °F 68% 30.08 in 10.0 mi Calm Calm - N/A   Clear
4:34 AM 66.2 °F - 55.4 °F 68% 30.09 in 10.0 mi Calm Calm - N/A   Clear
4:57 AM 64.4 °F - 57.2 °F 77% 30.10 in 10.0 mi Calm Calm - N/A   Clear
5:16 AM 64.4 °F - 57.2 °F 77% 30.09 in 10.0 mi East 3.5 mph - N/A   Clear
5:34 AM 64.4 °F - 57.2 °F 77% 30.10 in 10.0 mi East 3.5 mph - N/A   Clear
5:54 AM 64.4 °F - 57.2 °F 77% 30.10 in 10.0 mi East 4.6 mph - N/A   Clear
6:14 AM 64.4 °F - 57.2 °F 77% 30.10 in 10.0 mi Calm Calm - N/A   Clear
6:54 AM 66.2 °F - 57.2 °F 73% 30.10 in 10.0 mi Calm Calm - N/A   Clear
7:14 AM 66.2 °F - 57.2 °F 73% 30.10 in 10.0 mi ENE 4.6 mph - N/A   Clear
7:37 AM 68.0 °F - 57.2 °F 68% 30.11 in 10.0 mi East 3.5 mph - N/A   Clear
7:54 AM 69.8 °F - 57.2 °F 64% 30.11 in 10.0 mi East 3.5 mph - N/A   Clear
8:14 AM 71.6 °F - 57.2 °F 60% 30.12 in 10.0 mi East 5.8 mph - N/A   Clear
8:34 AM 71.6 °F - 57.2 °F 60% 30.12 in 10.0 mi East 4.6 mph - N/A   Clear
8:54 AM 73.4 °F - 59.0 °F 61% 30.12 in 10.0 mi East 6.9 mph - N/A   Clear
9:16 AM 75.2 °F - 60.8 °F 61% 30.13 in 10.0 mi East 8.1 mph - N/A   Clear
9:36 AM 77.0 °F - 62.6 °F 61% 30.13 in 10.0 mi East 6.9 mph - N/A   Clear
9:57 AM 78.8 °F - 62.6 °F 57% 30.13 in 10.0 mi SE 4.6 mph - N/A   Clear
10:14 AM 78.8 °F - 62.6 °F 57% 30.12 in 10.0 mi ESE 4.6 mph - N/A   Clear
10:34 AM 78.8 °F - 64.4 °F 61% 30.11 in 10.0 mi East 4.6 mph - N/A   Clear
10:55 AM 80.6 °F 82.7 °F 66.2 °F 61% 30.11 in 10.0 mi ESE 4.6 mph - N/A   Clear
11:38 AM 82.4 °F 84.6 °F 66.2 °F 58% 30.11 in 10.0 mi Calm Calm - N/A   Clear
12:14 PM 84.2 °F 87.3 °F 68.0 °F 58% 30.10 in 10.0 mi SSE 8.1 mph - N/A   Clear
12:34 PM 84.2 °F 87.3 °F 68.0 °F 58% 30.10 in 10.0 mi South 8.1 mph - N/A   Scattered Clouds
12:54 PM 84.2 °F 86.6 °F 66.2 °F 55% 30.09 in 10.0 mi SSE 6.9 mph - N/A   Scattered Clouds
1:14 PM 86.0 °F 89.4 °F 68.0 °F 55% 30.09 in 10.0 mi SSW 4.6 mph - N/A   Scattered Clouds
1:35 PM 84.2 °F 86.6 °F 66.2 °F 55% 30.07 in 10.0 mi South 4.6 mph - N/A   Scattered Clouds
1:56 PM 86.0 °F 87.3 °F 64.4 °F 48% 30.07 in 10.0 mi SSW 8.1 mph - N/A   Mostly Cloudy
2:15 PM 86.0 °F 88.2 °F 66.2 °F 51% 30.07 in 10.0 mi SSE 4.6 mph - N/A   Scattered Clouds
2:35 PM 87.8 °F 89.4 °F 64.4 °F 46% 30.07 in 10.0 mi SSW 6.9 mph - N/A   Scattered Clouds
2:54 PM 87.8 °F 90.4 °F 66.2 °F 49% 30.05 in 10.0 mi South 3.5 mph - N/A   Scattered Clouds
3:14 PM 87.8 °F 90.4 °F 66.2 °F 49% 30.05 in 5.0 mi SSE 5.8 mph - N/A   Haze
3:35 PM 86.0 °F 88.2 °F 66.2 °F 51% 30.04 in 10.0 mi SE 5.8 mph - N/A   Scattered Clouds
3:55 PM 87.8 °F 90.4 °F 66.2 °F 49% 30.04 in 10.0 mi SSE 8.1 mph - N/A   Clear
4:14 PM 87.8 °F 90.4 °F 66.2 °F 49% 30.03 in 10.0 mi SSE 9.2 mph - N/A   Scattered Clouds
4:34 PM 87.8 °F 90.4 °F 66.2 °F 49% 30.02 in 10.0 mi South 6.9 mph - N/A   Scattered Clouds
4:55 PM 87.8 °F 89.4 °F 64.4 °F 46% 30.02 in 10.0 mi SE 6.9 mph - N/A   Scattered Clouds
5:15 PM 87.8 °F 89.4 °F 64.4 °F 46% 30.02 in 10.0 mi South 6.9 mph - N/A   Scattered Clouds
5:35 PM 87.8 °F 90.4 °F 66.2 °F 49% 30.00 in 10.0 mi SSE 9.2 mph - N/A   Clear
5:54 PM 87.8 °F 89.4 °F 64.4 °F 46% 30.00 in 10.0 mi SE 9.2 mph - N/A   Clear
6:35 PM 87.8 °F 88.5 °F 62.6 °F 43% 30.00 in 10.0 mi South 5.8 mph - N/A   Clear
6:55 PM 86.0 °F 87.3 °F 64.4 °F 48% 30.00 in 10.0 mi South 6.9 mph - N/A   Clear
7:15 PM 84.2 °F 85.6 °F 64.4 °F 51% 30.00 in 10.0 mi South 5.8 mph - N/A   Clear
7:35 PM 84.2 °F 85.6 °F 64.4 °F 51% 30.00 in 10.0 mi South 5.8 mph - N/A   Clear
7:55 PM 82.4 °F 83.9 °F 64.4 °F 54% 30.00 in 10.0 mi SSE 4.6 mph - N/A   Clear
8:16 PM 80.6 °F 82.7 °F 66.2 °F 61% 30.00 in 10.0 mi SSE 4.6 mph - N/A   Scattered Clouds
8:35 PM 80.6 °F 82.7 °F 66.2 °F 61% 30.00 in 10.0 mi ESE 5.8 mph - N/A   Mostly Cloudy
8:55 PM 80.6 °F 83.9 °F 69.8 °F 70% 30.00 in 10.0 mi ESE 6.9 mph - N/A   Overcast
9:15 PM 80.6 °F 83.2 °F 68.0 °F 65% 30.01 in 10.0 mi South 3.5 mph - N/A   Overcast
9:35 PM 80.6 °F 83.2 °F 68.0 °F 65% 30.02 in 10.0 mi South 5.8 mph - N/A   Mostly Cloudy